Location: Koussan�
(15.2012°N, 12.5548°W)
Time: 18:25:07
(UTC+00:00)

Cosmos 1328 - Pass Details

Date: 20 October 2020
Orbit: 533 x 550 km, 82.5° (Epoch: 01 December)

Event Time Altitude Azimuth Distance (km) Brightness Sun altitude
Rises 19:26:44 0° 353° (N) 2,671 7.3 -15.2°
Reaches altitude 10° 19:28:52 10° 352° (N) 1,781 6.4 -15.7°
Maximum altitude 19:32:47 77° 267° (W) 550 3.9 -16.6°
Drops below altitude 10° 19:36:42 10° 180° (S) 1,785 6.5 -17.5°
Sets 19:38:50 0° 179° (S) 2,677 7.4 -18.1°
